Wind_Speed
2 2 2 2 2 2 3 3 4 6 6 6 6 6 5 5 5 5 5 5 5 5 5 5 4 4 4 4 5 6 6 6 7 7 7 7 7 7 7 8 8 8 8
3 3 3 3 3 3 4 4 6 7 7 7 6 5 5 5 5 6 6 6 6 6 6 6 5 5 5 5 5 6 6 6 7 7 7 7 8 7 8 8 8 8 8
4 3 3 3 3 3 4 5 6 7 7 7 6 6 6 6 6 6 6 7 7 7 7 7 6 5 5 5 6 6 6 6 7 7 7 8 8 8 8 8 8 8 8
4 4 4 4 4 4 5 5 6 7 7 7 7 7 7 6 7 7 8 8 7 7 7 7 7 6 6 6 7 7 7 7 7 7 8 8 8 8 9 9 9 9 9
5 4 4 4 4 4 5 5 6 7 7 7 7 7 7 7 7 8 8 8 8 8 8 8 7 7 7 7 7 7 7 7 7 8 8 8 8 8 9 9 9 9 9
5 4 4 3 3 4 4 5 6 7 7 7 7 7 8 8 8 8 8 8 8 8 7 7 7 7 7 8 8 8 8 8 8 8 9 8 8 9 9 9 9 9 9
4 4 3 3 4 4 5 6 7 8 8 8 8 8 8 9 8 8 7 8 7 7 7 7 7 7 7 8 8 9 9 9 9 9 9 9 9 9 9 9 9 9 10
4 4 3 4 4 4 5 6 7 8 8 8 8 8 8 8 8 8 8 7 7 7 7 8 7 7 8 8 8 9 10 10 9 9 9 9 9 9 9 10 9 10 10
3 3 3 4 4 4 5 6 7 8 9 9 8 8 8 8 8 8 8 8 7 8 8 8 8 8 8 8 9 9 10 10 10 10 10 10 10 10 10 10 10 10 10
3 3 3 3 3 4 5 6 8 9 9 9 9 9 8 8 8 8 8 8 8 9 9 8 8 8 9 9 9 9 10 10 10 10 10 11 11 10 10 10 10 11 10
3 3 2 3 3 4 6 7 8 8 8 8 9 9 9 8 9 9 9 9 9 9 9 8 8 8 8 8 8 8 9 10 10 10 10 11 11 11 11 11 11 11 11
2 2 3 3 4 4 5 7 8 8 8 8 8 9 9 9 9 9 9 9 9 9 8 8 8 8 7 8 8 8 9 10 10 11 11 11 11 11 11 11 11 11 11
2 2 2 3 3 4 6 7 8 8 8 9 9 9 9 10 10 10 10 9 9 8 8 8 7 7 7 7 8 8 9 10 10 11 11 11 11 11 12 12 12 12 11
2 2 2 3 4 5 6 7 7 8 9 9 9 10 10 10 10 11 10 9 8 7 7 7 7 7 7 7 8 8 9 9 10 10 11 11 11 12 12 12 13 13 12
1 2 2 3 4 5 6 7 7 8 8 9 10 10 11 11 11 11 10 9 8 8 7 7 7 7 7 7 7 8 7 8 9 9 10 11 11 12 12 12 12 13 12
1 1 2 3 4 5 5 6 7 8 9 9 10 11 12 11 11 10 10 9 8 8 7 7 6 6 6 6 6 6 6 7 7 8 9 10 11 11 12 12 11 12 12
1 1 1 2 4 5 6 6 7 8 9 10 11 12 12 12 11 11 10 10 9 8 7 6 6 5 4 4 4 5 5 5 5 6 8 9 9 10 11 11 11 11 12
1 0 1 2 4 4 5 6 7 8 9 10 11 11 12 12 12 12 11 10 10 8 7 6 6 5 4 4 3 3 3 3 3 5 6 7 8 9 10 10 11 11 11
1 0 1 2 3 4 5 6 7 8 10 10 11 11 12 12 12 12 12 11 11 10 8 7 6 5 4 3 2 2 1 1 2 3 5 7 7 8 9 10 10 10 10
2 1 1 2 3 3 4 6 7 8 10 10 11 12 12 13 13 13 12 12 12 11 10 9 8 6 4 3 2 2 1 1 1 2 4 5 6 7 8 9 10 10 10
3 2 1 1 2 3 4 5 7 8 10 11 11 12 13 13 13 13 13 13 13 13 11 11 10 8 6 5 4 3 3 2 2 2 3 4 5 6 7 8 9 10 10
4 3 2 2 2 3 3 5 6 8 9 10 11 12 13 13 14 14 14 14 14 14 13 13 12 11 9 7 6 5 4 4 3 2 2 3 4 5 6 7 8 9 10
6 4 3 2 2 2 3 4 6 7 8 9 11 11 12 13 14 14 14 14 15 15 14 14 14 13 11 10 9 7 6 5 4 4 3 3 3 4 5 6 7 8 9
6 5 4 4 3 3 3 4 5 6 8 9 10 11 12 13 13 14 14 15 15 15 15 14 14 13 12 11 10 9 8 7 6 6 5 3 2 3 4 5 6 7 8
7 6 6 5 4 3 3 3 4 5 7 8 9 10 11 12 13 14 14 15 15 16 15 15 15 14 14 12 11 10 9 8 8 7 6 5 3 2 2 3 5 6 7
9 8 7 6 4 3 2 2 3 4 6 7 8 9 10 11 13 14 14 14 15 15 15 15 15 14 14 14 12 11 10 9 8 8 7 6 4 2 1 1 3 5 6
Wind_Direction
269 288 300 300 302 313 323 326 330 330 329 325 326 331 324 323 321 318 315 310 306 303 302 301 298 290 276 262 255 251 246 242 238 234 231 230 231 233 231 231 225 220 219
266 282 293 298 307 309 316 326 330 331 332 330 327 330 327 326 327 321 316 314 310 306 303 301 297 293 279 262 254 250 246 241 241 236 231 231 233 233 231 226 224 223 222
268 281 295 299 303 311 322 327 332 334 333 332 329 328 325 326 323 316 313 313 313 312 308 301 291 285 274 264 256 252 248 246 243 238 236 235 236 235 231 228 228 228 226
270 280 288 293 301 316 324 327 332 336 337 335 332 327 321 320 317 315 312 312 310 307 306 299 288 280 271 264 260 255 251 248 244 241 239 237 237 236 233 233 231 228 228
276 280 285 289 301 317 326 330 333 335 334 331 328 325 322 318 314 312 310 311 308 304 302 298 289 277 272 267 261 257 253 249 247 246 241 241 240 235 234 234 232 229 228
282 282 283 289 302 316 325 329 335 336 334 331 329 326 323 322 317 312 309 310 309 306 303 299 292 282 273 267 261 258 257 255 250 249 244 241 240 235 233 234 233 231 227
282 288 287 293 304 314 324 331 334 335 334 334 331 329 325 323 320 316 312 312 310 308 306 302 295 286 278 269 263 261 260 258 251 248 243 240 240 237 235 236 234 233 228
292 288 287 298 307 315 323 329 332 336 336 336 334 330 327 325 322 318 313 311 309 308 306 303 295 289 282 270 265 262 260 257 250 245 242 241 242 240 238 238 235 232 226
289 282 282 295 312 321 327 332 337 338 336 334 332 329 326 325 323 320 317 313 309 307 305 302 296 290 283 275 268 263 260 255 248 245 243 241 243 243 238 238 236 230 226
288 290 280 292 315 324 331 336 339 338 338 338 335 332 331 329 327 325 320 316 310 307 304 302 296 289 281 275 269 264 258 254 250 246 244 242 241 242 238 237 234 227 226
301 306 300 314 332 336 335 338 341 342 342 341 338 336 334 331 329 325 320 315 310 306 303 299 295 288 282 275 270 265 259 254 250 247 245 241 240 241 237 234 229 226 226
310 321 319 333 345 345 345 346 349 349 347 345 340 337 335 331 327 324 320 316 311 307 303 300 296 289 283 276 272 268 262 257 251 248 245 241 239 237 232 230 228 226 225
314 326 328 338 348 353 351 350 354 355 352 348 344 340 337 334 331 329 325 321 318 312 306 300 297 290 283 277 273 268 264 258 253 248 244 241 239 234 229 227 224 223 222
303 332 349 2 1 358 356 357 360 360 356 352 350 346 341 338 335 332 328 325 321 315 308 301 296 291 285 280 276 270 266 261 255 248 242 239 238 235 228 226 221 220 219
318 329 359 11 7 5 6 7 5 2 358 354 353 352 348 344 341 338 336 332 329 324 320 312 299 294 290 284 280 274 267 263 257 247 239 237 235 231 224 221 218 217 216
300 323 9 14 14 15 15 9 5 3 3 1 359 357 354 351 350 348 347 343 340 336 333 327 314 303 298 292 286 280 271 269 255 240 234 233 231 225 221 220 217 214 213
280 330 21 16 19 19 17 11 6 6 7 7 4 2 3 3 2 359 357 354 352 347 344 340 332 322 312 307 298 286 275 272 249 235 227 226 223 219 217 217 215 212 212
258 66 35 28 25 23 21 15 11 10 10 10 9 10 11 10 9 7 5 3 1 0 356 353 347 336 328 324 319 304 283 268 243 231 220 217 216 214 214 212 212 213 214
217 114 62 44 34 29 24 18 15 16 17 17 17 17 17 14 14 13 14 14 15 15 10 5 1 348 341 342 342 338 306 249 224 222 212 210 210 213 214 211 211 211 214
208 178 88 54 40 37 31 24 23 26 26 25 24 23 22 23 23 23 24 25 26 24 22 18 17 14 16 22 28 37 63 90 126 179 191 201 203 205 205 206 208 210 212
201 186 161 88 57 45 40 33 34 35 33 31 30 29 30 30 30 30 30 32 32 32 30 29 31 35 41 47 55 63 72 81 92 128 161 184 199 204 201 200 204 209 213
197 186 171 133 86 66 52 43 41 41 38 35 34 36 35 35 35 36 37 37 37 38 38 39 41 45 48 52 56 62 70 76 82 96 139 170 192 201 203 199 200 207 212
196 195 182 155 121 90 65 54 51 50 42 40 39 39 39 40 41 41 41 43 43 43 43 44 46 50 51 53 56 61 67 71 73 78 102 141 168 187 196 199 203 210 215
197 194 180 163 139 111 82 69 63 57 50 46 44 43 42 43 44 44 44 45 46 46 46 46 47 50 50 53 56 59 65 73 72 75 87 103 130 166 182 199 209 216 217
198 190 179 169 153 133 104 84 74 66 55 49 47 46 46 45 45 45 45 46 45 45 46 46 46 49 49 50 52 55 63 66 65 71 74 75 85 129 170 203 209 215 219
198 192 187 181 171 159 136 106 89 72 58 52 48 46 48 46 46 45 45 45 44 44 45 45 45 47 46 48 50 52 58 60 62 63 63 60 62 76 140 202 212 221 222
Height
5890 5890 5890 5890 5890 5890 5890 5889 5889 5888 5887 5887 5886 5886 5885 5885 5885 5885 5884 5884 5884 5883 5883 5883 5882 5882 5881 5881 5881 5882 5882 5882 5883 5883 5884 5885 5885 5886 5886 5887 5888 5889 5890
5890 5889 5890 5890 5890 5889 5889 5889 5888 5888 5887 5886 5885 5885 5885 5884 5884 5884 5883 5883 5883 5882 5882 5881 5881 5881 5880 5880 5880 5880 5881 5881 5882 5882 5883 5884 5884 5885 5886 5886 5887 5888 5889
5889 5889 5889 5889 5889 5889 5889 5888 5888 5887 5886 5886 5885 5885 5884 5884 5883 5883 5882 5882 5881 5881 5880 5880 5880 5879 5879 5879 5879 5879 5880 5880 5880 5881 5882 5882 5883 5884 5885 5885 5886 5887 5889
5889 5889 5889 5889 5889 5888 5888 5888 5887 5886 5886 5885 5884 5884 5883 5883 5882 5882 5881 5881 5880 5880 5879 5878 5878 5878 5878 5878 5878 5878 5878 5879 5879 5880 5880 5881 5882 5883 5883 5885 5886 5887 5888
5888 5888 5888 5888 5888 5888 5888 5887 5887 5886 5885 5884 5884 5883 5882 5882 5881 5880 5880 5879 5879 5878 5877 5877 5876 5876 5876 5876 5876 5876 5877 5877 5878 5879 5879 5880 5881 5881 5882 5883 5884 5886 5887
5888 5888 5887 5887 5887 5887 5887 5886 5886 5885 5884 5883 5883 5882 5881 5880 5880 5879 5878 5877 5877 5876 5876 5875 5875 5875 5874 5875 5875 5875 5875 5875 5876 5877 5878 5879 5879 5880 5881 5882 5883 5885 5886
5887 5887 5887 5887 5887 5887 5886 5886 5885 5884 5883 5882 5881 5881 5880 5879 5878 5877 5876 5876 5875 5874 5874 5873 5873 5873 5873 5873 5873 5873 5873 5874 5874 5875 5876 5877 5878 5879 5880 5881 5882 5883 5885
5886 5886 5886 5886 5886 5886 5886 5885 5884 5883 5882 5881 5880 5879 5879 5877 5877 5876 5875 5874 5873 5873 5872 5872 5871 5871 5871 5871 5871 5871 5871 5872 5873 5874 5875 5876 5877 5878 5879 5880 5881 5882 5884
5886 5886 5886 5886 5885 5885 5885 5884 5883 5882 5881 5880 5879 5878 5877 5876 5875 5874 5873 5872 5871 5871 5870 5870 5869 5869 5869 5869 5869 5869 5869 5870 5871 5872 5873 5874 5875 5876 5877 5879 5880 5881 5883
5885 5885 5885 5885 5885 5885 5884 5883 5883 5882 5880 5879 5878 5877 5876 5875 5874 5872 5871 5870 5869 5869 5868 5867 5867 5867 5866 5866 5866 5867 5867 5868 5869 5870 5871 5872 5873 5874 5876 5877 5878 5880 5882
5885 5885 5885 5884 5884 5884 5883 5883 5882 5880 5879 5878 5877 5876 5875 5873 5872 5871 5870 5868 5867 5867 5866 5865 5865 5864 5864 5864 5864 5865 5865 5866 5866 5868 5869 5870 5871 5873 5874 5875 5877 5879 5880
5884 5884 5884 5884 5884 5883 5883 5882 5881 5880 5878 5877 5876 5875 5873 5872 5871 5869 5868 5866 5865 5864 5864 5863 5862 5862 5862 5862 5862 5862 5863 5863 5864 5865 5866 5868 5869 5871 5872 5874 5875 5877 5879
5884 5884 5883 5883 5883 5882 5882 5881 5880 5879 5877 5876 5875 5874 5872 5871 5869 5868 5866 5864 5863 5862 5861 5861 5860 5860 5860 5860 5860 5860 5860 5861 5862 5863 5864 5865 5867 5868 5870 5872 5874 5876 5878
5883 5883 5883 5883 5882 5882 5881 5880 5879 5878 5877 5875 5874 5873 5871 5869 5868 5866 5864 5863 5861 5860 5859 5859 5858 5858 5857 5857 5857 5857 5858 5858 5859 5860 5862 5863 5865 5866 5868 5870 5872 5875 5877
5883 5883 5883 5882 5882 5881 5881 5880 5879 5878 5876 5875 5874 5872 5870 5868 5866 5865 5863 5861 5860 5859 5858 5857 5856 5856 5855 5855 5855 5855 5855 5856 5857 5858 5859 5860 5862 5864 5866 5868 5871 5873 5876
5882 5882 5882 5882 5882 5881 5881 5880 5879 5877 5876 5875 5873 5871 5869 5867 5865 5863 5862 5860 5858 5857 5856 5855 5854 5853 5853 5853 5853 5853 5853 5853 5854 5855 5857 5858 5860 5862 5864 5867 5869 5872 5874
5882 5882 5882 5882 5882 5881 5881 5880 5879 5878 5876 5875 5873 5871 5869 5867 5865 5863 5861 5859 5857 5856 5854 5853 5852 5852 5851 5851 5851 5851 5851 5852 5852 5853 5855 5857 5858 5860 5863 5865 5868 5870 5873
5881 5882 5882 5882 5882 5881 5881 5880 5879 5878 5876 5875 5873 5871 5869 5867 5865 5863 5861 5859 5857 5855 5853 5852 5851 5850 5850 5850 5849 5849 5850 5850 5851 5852 5854 5856 5857 5860 5862 5864 5867 5869 5872
5881 5881 5882 5882 5881 5881 5881 5880 5879 5878 5877 5875 5873 5871 5870 5867 5865 5863 5861 5859 5856 5855 5853 5852 5850 5849 5849 5849 5848 5849 5849 5849 5850 5851 5853 5855 5857 5859 5861 5863 5866 5868 5871
5880 5881 5882 5882 5881 5881 5881 5881 5880 5879 5877 5876 5874 5872 5870 5868 5866 5863 5861 5859 5857 5855 5853 5852 5850 5849 5848 5848 5848 5848 5849 5849 5850 5851 5852 5854 5856 5858 5860 5862 5865 5867 5870
5880 5881 5881 5882 5882 5882 5881 5881 5880 5880 5878 5877 5875 5873 5871 5869 5867 5865 5862 5860 5858 5856 5854 5853 5851 5850 5849 5849 5849 5849 5849 5850 5851 5851 5852 5854 5856 5857 5860 5862 5864 5867 5869
5880 5881 5881 5882 5882 5882 5882 5882 5881 5880 5879 5878 5876 5875 5873 5871 5868 5866 5864 5862 5860 5858 5856 5854 5853 5852 5851 5850 5850 5850 5850 5851 5851 5852 5853 5854 5856 5857 5859 5862 5864 5866 5868
5879 5880 5881 5881 5882 5882 5882 5882 5882 5881 5881 5879 5878 5876 5874 5872 5870 5868 5866 5864 5862 5860 5859 5857 5855 5854 5853 5852 5852 5852 5852 5852 5852 5853 5853 5855 5856 5858 5859 5861 5863 5865 5868
5878 5879 5880 5881 5882 5882 5883 5883 5883 5882 5882 5881 5879 5878 5876 5874 5872 5870 5868 5867 5865 5863 5861 5860 5858 5857 5856 5855 5854 5853 5854 5853 5854 5854 5855 5856 5857 5858 5859 5861 5863 5865 5867
5877 5879 5880 5881 5882 5883 5883 5883 5883 5883 5883 5882 5881 5880 5878 5876 5874 5873 5871 5869 5868 5866 5864 5862 5861 5859 5858 5857 5856 5856 5855 5856 5856 5856 5856 5857 5858 5858 5859 5861 5862 5864 5866
5876 5878 5880 5881 5882 5883 5883 5884 5884 5884 5884 5883 5882 5881 5880 5878 5877 5875 5873 5872 5870 5869 5867 5865 5864 5862 5861 5860 5859 5858 5858 5858 5858 5858 5858 5858 5858 5859 5860 5861 5862 5863 5865